Flight Track Log - Related Links

Times and Time Zones

All times are in EDT time to prevent confusion due to time zone crossing. See the UCA4838 flight status page for this flight to view local times or setup timezone preferences in your user account.

Time Position Orientation Groundspeed Altitude Reporting Facility
EDT Latitude Longitude Course Direction KTS MPH feet Rate Location/Type
Thu 09:58:12 AM 42.7483 -73.8256 206° Southwest 121 139 1,100  Level Boston Center
Thu 09:59:01 AM 42.7478 -73.8678 269° West 125 144 1,800 1,091 Climbing Boston Center
Thu 10:00:02 AM 42.7097 -73.9036 215° Southwest 178 205 3,100 1,240 Climbing Boston Center
Thu 10:01:02 AM 42.6636 -73.9281 201° Southwest 184 212 4,300 1,140 Climbing Boston Center
Thu 10:02:00 AM 42.2216 -73.8983 208° Southwest  Level Estimated
Thu 10:02:03 AM 42.6153 -73.9581 205° Southwest 199 229 5,400  Level Boston Center
Thu 10:03:00 AM 42.1161 -73.9174 206° Southwest  Level Estimated
Thu 10:03:04 AM 42.5650 -73.9850 202° Southwest 196 226 6,500  Level Boston Center
Thu 10:04:04 AM 42.5186 -74.0147 205° Southwest 194 223 7,400 1,140 Climbing Boston Center
Thu 10:05:05 AM 42.4661 -74.0472 205° Southwest 190 219 8,800 1,180 Climbing Boston Center
Thu 10:06:06 AM 42.4178 -74.0742 202° Southwest 181 208 9,800 533 Climbing Boston Center
Thu 10:07:20 AM 42.3589 -74.1092 204° Southwest 211 243 10,000 90 Climbing Boston Center
Thu 10:08:20 AM 42.2917 -74.1494 204° Southwest 236 272 10,000  Level Boston Center
Thu 10:09:20 AM 42.2392 -74.1789 203° Southwest 236 272 10,000  Level Boston Center
Thu 10:10:20 AM 42.1758 -74.2247 208° Southwest 236 272 10,000  Level Boston Center
Thu 10:11:20 AM 42.1231 -74.2622 208° Southwest 236 272 10,000 -100 Level Boston Center
Thu 10:12:20 AM 42.0619 -74.3081 209° Southwest 241 277 9,800 -650 Descending Boston Center
Thu 10:13:20 AM 42.0072 -74.3483 209° Southwest 252 290 8,700 -1,200 Descending Boston Center
Thu 10:14:20 AM 41.9417 -74.3967 209° Southwest 252 290 7,400 -850 Descending Boston Center
Thu 10:15:20 AM 41.8889 -74.4342 208° Southwest 247 284 7,000 -200 Descending Boston Center
Thu 10:16:20 AM 41.8233 -74.4794 207° Southwest 247 284 7,000  Level Boston Center
Thu 10:17:20 AM 41.7728 -74.5167 209° Southwest 247 284 7,000  Level Boston Center
Thu 10:18:20 AM 41.7017 -74.5367 192° South 242 278 7,000 -200 Level Boston Center
Thu 10:19:20 AM 41.6389 -74.5483 188° South 248 285 6,600 -500 Descending Boston Center
Thu 10:20:20 AM 41.5614 -74.5625 188° South 256 295 6,000 -218 Descending Boston Center
Thu 10:22:05 AM 41.4333 -74.5833 187° South 250 288 6,000  Level New York TRACON
Thu 10:24:05 AM 41.3000 -74.5667 175° South 275 316 6,000  Level New York TRACON
Thu 10:25:05 AM 41.2500 -74.5000 135° Southeast 272 313 6,000  Level New York TRACON
Thu 10:26:05 AM 41.2000 -74.4333 135° Southeast 272 313 6,000 -33 Level New York TRACON
Thu 10:28:05 AM 41.0833 -74.3167 143° Southeast 233 268 5,900 -333 Descending New York TRACON
Thu 10:29:05 AM 41.0333 -74.2667 143° Southeast 224 258 5,000 -450 Descending New York TRACON
Thu 10:30:05 AM 41.0167 -74.1833 105° East 227 261 5,000 -500 Level New York TRACON
Thu 10:31:05 AM 41.0000 -74.1000 105° East 223 257 4,000 -900 Descending New York TRACON
Thu 10:32:05 AM 40.9500 -74.0833 166° South 217 250 3,200 -800 Descending New York TRACON

Login

Don't have an account? Register now (free) for customized features, flight alerts, and more!